AirNav   Air Wisconsin pilot careers
 
 1009 users online  

MO46 Walker Airport
Louisana, Missouri, USA

GOING TO LOUISANA?


FAA INFORMATION EFFECTIVE 03 JANUARY 2019

Location

FAA Identifier: MO46
Lat/Long: 39-31-13.1659N / 091-10-18.5084W
39-31.219432N / 091-10.308473W
39.5203239 / -91.1718079
(estimated)
Elevation: 510 ft. / 155 m (estimated)
Variation: 02E (1995)
From city: 7 miles NW of LOUISANA, MO
Time zone: UTC -6 (UTC -5 during Daylight Saving Time)
Zip code: 63353

Airport Operations

Airport use: Private use. Permission required prior to landing
Activation date: 12/1999
Control tower: no
ARTCC: KANSAS CITY CENTER
FSS: COLUMBIA FLIGHT SERVICE STATION
Attendance: UNATNDD
Segmented circle: no

Airport Communications

WX AWOS-3 at HAE (18 nm NW): 120.775 (573-221-2584)
WX AWOS-3 at PPQ (20 nm E): 118.525 (217-285-1428)

Nearby radio navigation aids

VOR radial/distance  VOR name  Freq  Var
UINr161/20.3QUINCY VORTAC113.6005E

Airport Services

Runway Information

Runway 2/20

Dimensions: 2000 x 65 ft. / 610 x 20 m
Surface: turf
RUNWAY 2  RUNWAY 20
Traffic pattern: leftleft
Obstructions: none30 ft. pline, 300 ft. from runway

Airport Ownership and Management from official FAA records

Ownership: Privately-owned
Owner: RICHARD O. WALKER
16329 PIKE RD 114
LOUISIANA, MO 63353
Phone 573-754-4892
Manager: RICHARD O. WALKER
16329 PIKE RD 114
LOUISIANA, MO 63353
Phone 573-754-4892

Airport Operational Statistics

Aircraft based on the field: 1
Single engine airplanes: 1
    

Instrument Procedures

There are no published instrument procedures at MO46.

Some nearby airports with instrument procedures:

H19 - Bowling Green Municipal Airport (9 nm S)
KHAE - Hannibal Regional Airport (18 nm NW)
KPPQ - Pittsfield Penstone Municipal Airport (20 nm E)
KUIN - Quincy Regional Airport-Baldwin Field (25 nm N)
K52 - Cpt Ben Smith Airfield - Monroe City (27 nm W)
 
Loc | Ops | Rwys | IFR | FBO | Links
Com | Nav | Svcs | Stats | Notes

Kansas City Aviation Department
 
Area around MO46 (Walker Airport)
 
Road maps at: MapQuest Bing Google
 
Aerial photo
No photo
 
Sectional chart

 
Airport distance calculator
Flying to Walker Airport? Find the distance to fly.

From to MO46

Sunrise and sunset
Times for 19-Jan-2019
 Local
(UTC-6)
 Zulu
(UTC)
Morning civil twilight06:5312:53
Sunrise07:2313:23
Sunset17:0823:08
Evening civil twilight17:3823:38

Current date and time
Zulu (UTC)  19-Jan-2019 16:55:31
Local (UTC-6)  19-Jan-2019 10:55:31
 
METAR
KHAE 
18nm NW 
191635Z AUTO 36011G16KT 10SM OVC011 M03/M06 A3001 RMK AO2
KPPQ 
19nm E 
191635Z AUTO 35014G22KT 10SM OVC010 M03/M04 A2996 RMK AO2 T10281042
KUIN 
26nm N 
191554Z AUTO 01023G30KT 3SM BR OVC011 M04/M07 A2997 RMK AO2 PK WND 01032/1540 SLP156 T10441067 $
KI63 
33nm NE 
191635Z AUTO 01017G23KT 10SM OVC011 M04/M06 A2999 RMK AO2 T10431061
TAF
KUIN 
26nm N 
191435Z 1915/2012 01020G30KT 4SM BR OVC010 FM191700 01020G31KT P6SM OVC010 FM192200 36019G32KT P6SM OVC015 FM192300 36017G30KT P6SM BKN030 FM200200 35015KT P6SM BKN070
NOTAMs
Click for the latest NOTAMs
NOTAMs are issued by the DoD/FAA and will open in a separate window not controlled by AirNav.

 

 
 

Would you like to see your business listed on this page?

 If your business provides an interesting product or service to pilots, flight crews, aircraft, or users of the Walker Airport, you should consider listing it here.  To start the listing process, click on the button below
 
Add a business
 

Other Pages about Walker Airport

Update a link
 
Copyright © AirNav, LLC. All rights reserved. Privacy Policy  Contact